{"data":{"norad_id":54020,"intl_designator":"2022-126A","name":"CENTISPACE-1 S5","alt_names":[],"object_type":"PAYLOAD","status":"ACTIVE","operator":null,"country":"PRC","launch_date":"2022-10-07","launch_site_code":"SEAL","launch_vehicle":null,"mission":null,"orbit_class":"UNKNOWN","rcs_meters":null,"size_class":null,"mass_kg":null,"dimensions":null,"purposes":[],"wikipedia_slug":null,"has_3d_model":false,"image_url":null,"decayed_at":null,"tle_current":{"epoch":"2026-09-20T22:27:55.067328Z","epoch_age_seconds":117793,"freshness":"FRESH","line1":"1 54020U 22126A   26263.93605402  .00000420  00000+0  11751-3 0  9995","line2":"2 54020  54.9987 189.7594 0010010 289.8381  70.1533 14.63148813211056","mean_motion":14.63148813,"eccentricity":0.001001,"inclination_deg":54.9987,"raan_deg":189.7594,"arg_perigee_deg":289.8381,"mean_anomaly_deg":70.1533,"bstar":0.00011751,"rev_number":21105,"period_min":98.417877061149,"perigee_km":675.9567727064,"apogee_km":690.09321902212,"semimajor_km":7061.1619958643,"source":"CELESTRAK","updated_at":"2026-09-21T09:00:09.346588Z"}}}